DECAYED

STARLINK-4708, 53776 (Decayed)

Orbit data source: Space-Track

STARLINK-4708, 53776 was a payload satellite owned by SpaceX/Seattle (US) in LEO that was launched on Sun, 11 Sep 2022 UTC via an FALCON 9 launch vehicle from the Air Force Eastern Test Range (AFETR). Payload-class satellites include a variety of spacecraft equipped with specific instruments for various scientific and technological missions. These include communications satellites like Starlink; space stations such as the ISS; scientific satellites like the Hubble; Earth observation satellites from companies like Planet Labs, Umbra, and HawkEye 360; GPS; miniature CubeSats for education and research; and military/defense satellites.

Not visible in the next 10 days
Identifier
53776, 2022-111D
Orbit
Decayed
Country
Flag of USUS
Related business
Manufacturer
SpaceX/Seattle
Mission
Decayed Commercial Communications
Bus & Motor
STARLINK, Unknown motor
Mass
305 kg wet, ~290 kg dry
Launch date (UTC)
2022-09-11 (3 years ago)
Launch vehicle
FALCON 9
Launch site
Air Force Eastern Test Range (AFETR)
Object type
Payload
Rocket body
Debris
Shape & HBR
Box + 1 Pan, 10.1 m
Radar Cross Section
13.562 m², Large (>1 m²)

Expand to show TLE details & history
Last TLE update: 4 months ago

TLE from 4 months ago
0 STARLINK-4708
1 53776U 22111D   25205.45034891  .11454587  11978-4  32414-2 0  9994
2 53776  53.2031 191.0169 0001864 245.4026 245.8580 16.26950342158816
Epoch: 2025-07-24T10:48Z
TLE epoch observation values (Epoch: 2025-07-24T10:48:30.145Z)
Latitude
37.14755°
Longitude
-127.81871°
Altitude
204.244 km
Speed
7.789 km/s
True Right ascension
22h 26m 53s
True Declination
36° 58' 06"
Sunlit
Object was in full shadow at epoch
Visualization orbit readout
Latitude
Unknown
Longitude
Unknown
Altitude
Unknown
Speed
Unknown
Apparent Right ascension
Unknown
Apparent Declination
Unknown
Sunlit
N/A
Visualization observer readout
Local Sidereal Time
19:45:49
Azimuth
Unknown
Elevation
Unknown
Doppler factor
Unknown
Orbital elements
Apogee altitude
202.234 km
Perigee altitude
199.781 km
Semi-major axis
6,579.145 km
Eccentricity
0.00019
Inclination
53.2031°
RAAN
191.0169°
Arg. of periapsis
245.4026°
True anomaly
245.83851°
Mean anomaly
245.858°
Eccentric anomaly
245.84825°
Mean motion
4.06714 °/min
Orbital period
88.51 mins
BSTAR
0.0032414
Loading maneuver chart data...
Computing Atmospheric mass density...
Loading historical data...
Loading historical data...
Loading historical data...
Loading historical data...
Loading historical data...
Loading historical data...
Loading historical data...

Documentation

Showing up to 5 results
|